Weather in Priobskiy

Russia / Novosibirsk Oblast     55°04′14″N   82°45′58″E
temp.,
°C
wind,
m/s
gust,
m/s
humid.,
%
clouds,
%
prec.,
mm/h
press.,
hPa
HPBL,
m
1 march, mon
mon101:00−12se4994100 0.6 1022321
04:00−10se51095100 0.6 1017427
07:00−9ese5995100 2.1 1014427
10:00−6se61095100 1.6 1011483
13:00−3e4796100 3.8 1008400
16:00−2nne3596100 0.9 1008308
19:00−5nne4796100 1.4 1007250
22:00−9nne4895100 0.9 1007251
2 march, tue
tue201:00−11nne3695100 1.8 1009253
04:00−12n3596100 0.2 1010176
07:00−15n239697 0.4 101344
10:00−14nnw129479 0.1 1014120
13:00−12w238986 0.2 1016326
16:00−11wsw2387100 0.1 1015436
19:00−14ssw1196100 0.1 101620
22:00−14w1197100 0.1 101620
3 march, wed
wed301:00−14w1196100 0.1 101520
04:00−16wsw119792 0.1 101620
07:00−16wsw119792 0.2 101720
10:00−14ssw129491 0.1 1017108
13:00−12sw238989 0.2 1018365
16:00−10ssw3589100 0.1 1018494
19:00−12ssw349395 0.1 102042
22:00−12ssw5119394 0.1 1021300
4 march, thu
thu401:00−17s499572 0.1 1022184
04:00−15s6129290 0.0 1020366
07:00−11s7139496 0.4 1020555
10:00−8s81592100 0.5 1018656
13:00−6ssw81491100 0.9 1018681
16:00−5ssw91593100 0.5 1016711
19:00−5ssw81591100 0.9 1016783
22:00−4ssw81688100 0.2 1014683
5 march, fri
fri501:00−5ssw81686100 0.2 1014576
04:00−5s71686100 0.0 1012577
07:00−7s71484100 0.0 1010492
10:00−5s71395100 0.5 1009620
13:00−3sw61095100 2.3 1008697
16:00−1wsw71295100 0.8 1010980
19:00−5wsw7148496 1.0 1016571
22:00−9sw6148838 0.0 1019474